• In Belarus
  • List of Countries
  • For 7 days
  • Water Temperature
  • Weather Map
  • Weather Widgets
  • user-avatar
    Login

    Hourly Weather Potosi

    Today, 21 November, Thursday

    Time Temperature Precipitation Wind Pressure Humidity
    00:00 +8°C° 0.4 mm 2 mps 468 mmHg 70%
    01:00 +9°C° 0.4 mm 1 mps 468 mmHg 71%
    02:00 +8°C° 0.4 mm 1 mps 467 mmHg 72%
    03:00 +8°C° 0.1 mm 1 mps 467 mmHg 75%
    04:00 +8°C° 0.1 mm 1 mps 467 mmHg 77%
    05:00 +8°C° 0.1 mm 1 mps 467 mmHg 79%
    06:00 +8°C° 0 mm 1 mps 467 mmHg 75%
    07:00 +9°C° 0 mm 1 mps 468 mmHg 71%
    08:00 +9°C° 0 mm 1 mps 468 mmHg 67%
    09:00 +11°C° 0.1 mm 1 mps 469 mmHg 60%
    10:00 +12°C° 0.1 mm 2 mps 470 mmHg 53%
    11:00 +13°C° 0.1 mm 2 mps 470 mmHg 47%
    12:00 +13°C° 0.3 mm 3 mps 470 mmHg 45%
    13:00 +13°C° 0.3 mm 3 mps 470 mmHg 43%
    14:00 +14°C° 0.3 mm 4 mps 470 mmHg 41%
    15:00 +14°C° 0.3 mm 5 mps 469 mmHg 42%
    16:00 +13°C° 0.3 mm 6 mps 469 mmHg 42%
    17:00 +12°C° 0.3 mm 7 mps 468 mmHg 43%
    18:00 +11°C° 1.1 mm 6 mps 468 mmHg 52%
    19:00 +10°C° 1.1 mm 4 mps 468 mmHg 62%
    20:00 +9°C° 1.1 mm 3 mps 467 mmHg 72%
    21:00 +9°C° 0.5 mm 2 mps 467 mmHg 69%
    22:00 +9°C° 0.5 mm 2 mps 468 mmHg 66%
    23:00 +10°C° 0.5 mm 1 mps 468 mmHg 63%

    Tomorrow, 22 November, Friday

    Time Temperature Precipitation Wind Pressure Humidity
    00:00 +9°C° 0 mm 1 mps 467 mmHg 66%
    01:00 +9°C° 0 mm 1 mps 467 mmHg 69%
    02:00 +8°C° 0 mm 0 mps 467 mmHg 72%
    03:00 +7°C° 0.1 mm 0 mps 466 mmHg 74%
    04:00 +7°C° 0.1 mm 0 mps 466 mmHg 76%
    05:00 +7°C° 0.1 mm 0 mps 466 mmHg 79%
    06:00 +8°C° 0.1 mm 0 mps 467 mmHg 73%
    07:00 +8°C° 0.1 mm 0 mps 468 mmHg 68%
    08:00 +10°C° 0.1 mm 1 mps 468 mmHg 62%
    09:00 +10°C° 0.1 mm 2 mps 469 mmHg 55%
    10:00 +13°C° 0.1 mm 2 mps 470 mmHg 47%
    11:00 +13°C° 0.1 mm 3 mps 471 mmHg 40%
    12:00 +14°C° 0.2 mm 4 mps 470 mmHg 40%
    13:00 +14°C° 0.2 mm 4 mps 470 mmHg 41%
    14:00 +14°C° 0.2 mm 5 mps 470 mmHg 41%
    15:00 +12°C° 2.2 mm 4 mps 468 mmHg 53%
    16:00 +10°C° 2.2 mm 3 mps 467 mmHg 64%
    17:00 +7°C° 2.2 mm 3 mps 465 mmHg 76%
    18:00 +7°C° 0.9 mm 2 mps 466 mmHg 76%
    19:00 +7°C° 0.9 mm 2 mps 466 mmHg 77%
    20:00 +8°C° 0.9 mm 1 mps 466 mmHg 77%
    21:00 +8°C° 0 mm 1 mps 467 mmHg 77%
    22:00 +8°C° 0 mm 1 mps 467 mmHg 77%
    23:00 +8°C° 0 mm 1 mps 468 mmHg 76%

    Day after tomorrow, 23 November, Saturday

    Time Temperature Precipitation Wind Pressure Humidity
    00:00 +8°C° 0 mm 1 mps 467 mmHg 77%
    01:00 +8°C° 0 mm 1 mps 467 mmHg 78%
    02:00 +7°C° 0 mm 1 mps 467 mmHg 78%
    03:00 +7°C° 0 mm 1 mps 467 mmHg 80%
    04:00 +7°C° 0 mm 1 mps 467 mmHg 81%
    05:00 +6°C° 0 mm 1 mps 466 mmHg 83%
    06:00 +7°C° 0 mm 1 mps 467 mmHg 78%
    07:00 +8°C° 0 mm 1 mps 468 mmHg 73%
    08:00 +8°C° 0 mm 1 mps 468 mmHg 68%
    09:00 +8°C° 0.1 mm 2 mps 469 mmHg 63%
    10:00 +10°C° 0.1 mm 2 mps 470 mmHg 58%
    11:00 +11°C° 0.1 mm 3 mps 470 mmHg 53%
    12:00 +11°C° 0.5 mm 3 mps 470 mmHg 53%
    13:00 +12°C° 0.5 mm 4 mps 470 mmHg 52%
    14:00 +12°C° 0.5 mm 4 mps 470 mmHg 52%
    15:00 +12°C° 0.3 mm 4 mps 469 mmHg 53%
    16:00 +12°C° 0.3 mm 5 mps 469 mmHg 55%
    17:00 +10°C° 0.3 mm 5 mps 468 mmHg 56%
    18:00 +10°C° 0.1 mm 4 mps 468 mmHg 62%
    19:00 +8°C° 0.1 mm 4 mps 468 mmHg 67%
    20:00 +8°C° 0.1 mm 3 mps 467 mmHg 73%
    21:00 +8°C° 0 mm 3 mps 468 mmHg 73%
    22:00 +8°C° 0 mm 2 mps 468 mmHg 74%
    23:00 +9°C° 0 mm 1 mps 468 mmHg 74%

    24 November, Sunday

    Time Temperature Precipitation Wind Pressure Humidity
    00:00 +9°C° 0 mm 1 mps 467 mmHg 76%
    01:00 +8°C° 0 mm 1 mps 467 mmHg 77%
    02:00 +8°C° 0 mm 1 mps 466 mmHg 79%
    03:00 +8°C° 0 mm 1 mps 466 mmHg 81%
    04:00 +7°C° 0 mm 1 mps 466 mmHg 83%
    05:00 +6°C° 0 mm 2 mps 466 mmHg 85%
    06:00 +8°C° 0 mm 1 mps 466 mmHg 81%
    07:00 +8°C° 0 mm 1 mps 466 mmHg 77%
    08:00 +9°C° 0 mm 1 mps 467 mmHg 74%
    09:00 +9°C° 0.1 mm 2 mps 468 mmHg 65%
    10:00 +12°C° 0.1 mm 2 mps 468 mmHg 57%
    11:00 +13°C° 0.1 mm 3 mps 469 mmHg 49%
    12:00 +13°C° 0.5 mm 3 mps 469 mmHg 48%
    13:00 +14°C° 0.5 mm 3 mps 468 mmHg 47%
    14:00 +14°C° 0.5 mm 4 mps 468 mmHg 46%
    15:00 +13°C° 1.9 mm 4 mps 466 mmHg 54%
    16:00 +11°C° 1.9 mm 4 mps 465 mmHg 62%
    17:00 +10°C° 1.9 mm 4 mps 463 mmHg 70%
    18:00 +9°C° 1.4 mm 3 mps 464 mmHg 70%
    19:00 +9°C° 1.4 mm 2 mps 464 mmHg 71%
    20:00 +9°C° 1.4 mm 1 mps 465 mmHg 71%
    21:00 +9°C° 0.2 mm 1 mps 465 mmHg 69%
    22:00 +9°C° 0.2 mm 2 mps 465 mmHg 66%
    23:00 +9°C° 0.2 mm 2 mps 466 mmHg 64%

    25 November, Monday

    Time Temperature Precipitation Wind Pressure Humidity
    00:00 +10°C° 0 mm 1 mps 465 mmHg 64%
    01:00 +10°C° 0 mm 1 mps 465 mmHg 65%
    02:00 +9°C° 0 mm 0 mps 465 mmHg 65%
    03:00 +9°C° 0 mm 1 mps 465 mmHg 67%
    04:00 +9°C° 0 mm 1 mps 464 mmHg 69%
    05:00 +9°C° 0 mm 1 mps 464 mmHg 72%
    06:00 +10°C° 0 mm 1 mps 465 mmHg 65%
    07:00 +11°C° 0 mm 1 mps 466 mmHg 59%
    08:00 +12°C° 0 mm 1 mps 466 mmHg 53%
    09:00 +13°C° 0 mm 1 mps 467 mmHg 46%
    10:00 +15°C° 0 mm 1 mps 468 mmHg 40%
    11:00 +16°C° 0 mm 1 mps 468 mmHg 34%
    12:00 +16°C° 0.2 mm 2 mps 468 mmHg 36%
    13:00 +16°C° 0.2 mm 2 mps 467 mmHg 38%
    14:00 +16°C° 0.2 mm 3 mps 466 mmHg 40%
    15:00 +12°C° 2.9 mm 3 mps 464 mmHg 53%
    16:00 +9°C° 2.9 mm 3 mps 462 mmHg 66%
    17:00 +6°C° 2.9 mm 4 mps 460 mmHg 79%
    18:00 +7°C° 0.4 mm 3 mps 461 mmHg 77%
    19:00 +8°C° 0.4 mm 2 mps 463 mmHg 74%
    20:00 +8°C° 0.4 mm 2 mps 464 mmHg 71%
    21:00 +8°C° 0 mm 2 mps 464 mmHg 73%
    22:00 +8°C° 0 mm 2 mps 464 mmHg 75%
    23:00 +9°C° 0 mm 1 mps 464 mmHg 77%

    26 November, Tuesday

    Time Temperature Precipitation Wind Pressure Humidity
    00:00 +9°C° 0 mm 1 mps 464 mmHg 74%
    01:00 +9°C° 0 mm 1 mps 464 mmHg 72%
    02:00 +9°C° 0 mm 1 mps 464 mmHg 70%
    03:00 +9°C° 0 mm 1 mps 464 mmHg 71%
    04:00 +9°C° 0 mm 1 mps 464 mmHg 72%
    05:00 +8°C° 0 mm 1 mps 464 mmHg 74%
    06:00 +9°C° 0 mm 1 mps 465 mmHg 69%
    07:00 +10°C° 0 mm 1 mps 466 mmHg 63%
    08:00 +11°C° 0 mm 1 mps 467 mmHg 58%
    09:00 +12°C° 0 mm 2 mps 467 mmHg 49%
    10:00 +14°C° 0 mm 2 mps 468 mmHg 41%
    11:00 +14°C° 0 mm 3 mps 469 mmHg 32%
    12:00 +16°C° 0.2 mm 3 mps 469 mmHg 31%
    13:00 +15°C° 0.2 mm 4 mps 469 mmHg 31%
    14:00 +17°C° 0.2 mm 4 mps 469 mmHg 30%
    15:00 +15°C° 0.7 mm 4 mps 468 mmHg 36%
    16:00 +14°C° 0.7 mm 4 mps 467 mmHg 41%
    17:00 +13°C° 0.7 mm 5 mps 466 mmHg 47%
    18:00 +12°C° 0.6 mm 4 mps 466 mmHg 52%
    19:00 +11°C° 0.6 mm 3 mps 466 mmHg 57%
    20:00 +10°C° 0.6 mm 3 mps 466 mmHg 61%
    21:00 +9°C° 0 mm 3 mps 466 mmHg 66%
    22:00 +9°C° 0 mm 2 mps 466 mmHg 71%
    23:00 +8°C° 0 mm 2 mps 465 mmHg 76%
    Show more